Regional Weather Roundup
Issued by NWS San Angelo, TX

Home | Current Version | Previous Version | Text Only | Print | Product List | Glossary On
Versions: 1 2 3 4 5 6 7 8 9 10 11 12 13 14 15 16 17 18 19 20 21 22 23 24 25 26 27 28 29 30 31 32 33 34 35 36 37 38 39 40 41 42 43 44 45 46 47 48 49 50
000
ASUS44 KSJT 222010
RWRSJT
WEST CENTRAL TEXAS REGIONAL WEATHER ROUNDUP
NATIONAL WEATHER SERVICE SAN ANGELO TX
300 PM CDT FRI AUG 22 2014

NOTE: "FAIR" INDICATES FEW OR NO CLOUDS BELOW 12,000 FEET WITH NO
SIGNIFICANT WEATHER AND/OR OBSTRUCTIONS TO VISIBILITY.

TXZ049-054-064>066-071>073-076>078-098-099-113-114-127-128-139-140-
154-155-168>170-222100
...LOCATIONS ACROSS WEST CENTRAL TEXAS...

CITY           SKY/WX    TMP DP  RH WIND       PRES   REMARKS
SAN ANGELO     SUNNY     98  47  17 S17G28    30.01F
ABILENE        SUNNY     97  52  21 SW17G24   30.02F
DYESS AFB      MOSUNNY   97  57  26 SW16G22   30.00F
JUNCTION       SUNNY     93  54  26 S13G21    30.04F
SWEETWATER     SUNNY     98  45  16 S20G25    30.05F
BROWNWOOD      SUNNY     99  50  19 SE14G25   30.01F
COLEMAN        CLEAR     95  51  23 S17G23    30.03F
SONORA         SUNNY     93  52  24 S22G30    30.08F
OZONA          FAIR      93  54  26 S16G22    30.05F
BRADY          SUNNY     95  54  24 S14       30.03F
$$

TEXAS PANHANDLE/OKLAHOMA PANHANDLE

CITY           SKY/WX    TMP DP  RH WIND       PRES   REMARKS
AMARILLO       MOSUNNY   95  58  28 SW10G20   30.01F
BORGER         MOSUNNY   97  56  25 S14G24    29.96F
CANADIAN       SUNNY     99  60  27 S16G25    29.92F
DALHART        SUNNY     98  46  17 SW13G24   30.00F
DUMAS          CLEAR     97  53  22 S14G24    30.00F
GUYMON         NOT AVBL
HEREFORD       PTCLDY    92  57  30 SW13G21   30.04S
PAMPA          PTCLDY    93  53  25 S12G21    29.99F
PERRYTON       SUNNY     97  59  27 S12G24    29.95F
$$

SOUTHERN PANHANDLE/SOUTH PLAINS/ROLLING PLAINS

CITY           SKY/WX    TMP DP  RH WIND       PRES   REMARKS
LUBBOCK        MOSUNNY   95  59  30 S16G22    30.04F
SNYDER         SUNNY     95  49  20 SW9G18    30.03F
CHILDRESS      SUNNY     99  61  28 SW15G21   29.95F
SEMINOLE       CLEAR     93  57  30 SE10G20   30.05F
$$

PERMIAN BASIN

CITY           SKY/WX    TMP DP  RH WIND       PRES   REMARKS
MIDLAND        SUNNY     93  60  33 SE10      30.02F
ODESSA         SUNNY     92  59  33 MISG      30.04F
WINK           SUNNY     95  60  31 S8G18     29.99F
$$

FAR WEST/SOUTHWEST MOUNTAINS/TRANS PECOS

CITY           SKY/WX    TMP DP  RH WIND       PRES   REMARKS
ALPINE         MOCLDY    88  56  33 S10G18    30.17F
DRYDEN           N/A     97  58  27 VRB5      29.98F
EL PASO        LGT RAIN  74  62  66 S6        30.12F
FORT STOCKTON  SUNNY     93  61  34 E7        30.02F
GUADALUPE PASS MOSUNNY   84  57  39 W26G33    30.19F
MARFA          MOSUNNY   84  57  39 S10G16    30.18F
PECOS          CLEAR     95  59  30 SE9       29.98F
$$

DALLAS/FORT WORTH METROPLEX

CITY           SKY/WX    TMP DP  RH WIND       PRES   REMARKS
DFW AIRPORT    MOSUNNY   98  63  31 S15G24    29.99F
FTW MEACHAM    SUNNY    101  59  24 SW12G24   29.98F
DAL-EXECUTIVE  SUNNY     99  61  28 VRB7G18   30.00F
GRAND PRAIRIE  NOT AVBL
ADDISON        SUNNY     77  61  57 S10G21    30.01F
MESQUITE       CLEAR     99  61  28 S13       30.01F
LANCASTER      CLEAR     99  60  27 SW12      30.01F
$$

NORTH CENTRAL TEXAS

CITY           SKY/WX    TMP DP  RH WIND       PRES   REMARKS
SHRMAN/DENISON CLEAR     96  61  31 SW12G17   30.01F
GAINESVILLE    SUNNY     94  65  37 S14G21    30.01F
BRIDGEPORT     CLEAR     99  53  21 S9        30.00F
DENTON         SUNNY     99  59  26 S14G20    29.98F
WAXAHACHIE     CLEAR     97  58  27 S14       30.02F
GRANBURY       CLEAR    102  53  19 S10G21    30.00F
$$

WESTERN NORTH TEXAS

CITY           SKY/WX    TMP DP  RH WIND       PRES   REMARKS
WICHITA FALLS  SUNNY    103  57  21 S20G29    29.94F
VERNON         CLEAR    102  57  22 SW10G20   29.94F
BRECKENRIDGE   CLEAR    101  47  15 SW16      29.98F HAZE
COMANCHE       SUNNY    100  49  18 SW8G20    30.02F
$$

CENTRAL AND SOUTH CENTRAL TEXAS

CITY           SKY/WX    TMP DP  RH WIND       PRES   REMARKS
AUSTIN/BERGSTM MOSUNNY   99  63  30 S9G22     30.00F
WACO           SUNNY    100  61  27 SE13      30.00F
HILLSBORO      CLEAR     99  61  28 S12G17    30.01F
TEMPLE         SUNNY    100  61  27 S14G22    30.01F
KILLEEN-GRAY   MOSUNNY   99  57  25 S10G20    30.02F
FORT HOOD      SUNNY    102  58  23 SW10G16   30.01F
GEORGETOWN     SUNNY     99  63  30 SE6G21    30.03F
LAGO VISTA     FAIR      99  54  22 SE7G17    30.05F
SAN MARCOS     SUNNY    100  63  28 SE15G22   30.02F
NEW BRAUNFELS  SUNNY     99  60  27 S12       30.00F
RANDOLPH AFB   SUNNY    100  58  25 S10G20    30.01F
SAN ANTONIO    MOSUNNY   99  59  26 S9G22     30.02F
STINSON        SUNNY     99  55  23 S8G18     29.98F
PLEASANTON     NOT AVBL
LA GRANGE      SUNNY     99  68  36 SE3G16    29.99F
GIDDINGS       PTCLDY    98  64  31 S9G16     30.05F
$$

EAST TEXAS

CITY           SKY/WX    TMP DP  RH WIND       PRES   REMARKS
PARIS          SUNNY     95  68  41 S7        30.02F
CLARKSVILLE    PTCLDY    95  68  41 SW6       30.02F
TYLER          SUNNY     96  68  39 S12       30.04F
LONGVIEW       SUNNY     95  69  42 S7        30.04F
PALESTINE      CLEAR     95  69  43 SE6       30.05F
NACOGDOCHES    SUNNY     93  72  49 S8        30.06F
$$

TEXAS HILL COUNTRY AND EDWARDS PLATEAU

CITY           SKY/WX    TMP DP  RH WIND       PRES   REMARKS
LLANO          CLEAR    102  52  18 SW10G18   30.04F
HORSESHOE BAY  FAIR      99  51  19 S12G21    30.03S
KERRVILLE      SUNNY     94  59  31 SE12      30.06F
FREDERICKSBRG  SUNNY     93  55  27 S12G17    30.06F
ROCKSPRINGS    CLEAR     90  57  33 S15G21    30.10S
HONDO          SUNNY     99  55  23 SE9G26    30.02F
UVALDE         CLEAR     98  55  23 S15       29.99F
DEL RIO        SUNNY     98  60  28 SE16G22   29.94F
$$

SOUTHEAST TEXAS

CITY           SKY/WX    TMP DP  RH WIND       PRES   REMARKS
COLLEGE STN    MOSUNNY   96  69  41 S10       30.02F
CALDWELL       CLEAR     97  61  30 S9        30.04F
CROCKETT         N/A     97  75  49 SW5       30.06F
BRENHAM        SUNNY     98  66  35 S12       30.03F
HUNTSVILLE     SUNNY     94  70  45 S5        30.05F
CONROE         MOSUNNY   95  72  47 S9        30.05F
HOUSTON BUSH   MOSUNNY   96  70  42 SE13      30.04F
HOUSTON HOBBY  MOSUNNY   96  71  44 VRB3      30.03F
PERLAND        MOSUNNY   93  73  52 S10G22    30.05F
WHARTON        CLEAR     97  68  38 S15       30.03F
$$

THE UPPER TEXAS COAST

CITY           SKY/WX    TMP DP  RH WIND       PRES   REMARKS
ORANGE         CLEAR     93  72  50 CALM      30.07F
PORT ARTHUR    MOSUNNY   96  72  45 CALM      30.04F
GALVESTON      SUNNY     91  77  63 S13       30.07F
ANGLETON       MOSUNNY   91  74  57 SE13      30.05F
BAY CITY       PTCLDY    96  73  46 S9G18     30.04F
$$

TEXAS COASTAL BEND, RIO GRANDE PLAINS DEEP SOUTH TEXAS

CITY           SKY/WX    TMP DP  RH WIND       PRES   REMARKS
VICTORIA       MOSUNNY  100  67  33 SE17G26   30.02F
BEEVILLE       FAIR     100  64  31 SE15G22   29.99F
ROCKPORT       SUNNY     92  73  53 SE13      30.02F
PORT ARANSAS   CLEAR     87  77  72 SE9       30.02F
PORT LAVACA    PTCLDY    96  69  42 S14G22    30.02F
CORPUS CHRISTI MOSUNNY   97  65  34 SE18G29   30.00F
KINGSVILLE NAS MOSUNNY   99  73  43 E16G25    29.98F
COTULLA        SUNNY    104  49  15 SE16G26   29.96F
LAREDO         SUNNY    104  53  18 S9G23     29.97F
BROWNSVILLE    MOSUNNY   95  69  42 SE14G25   30.00F
PORT ISABEL    SUNNY     92  74  55 E20G26    30.00F
HEBBRONVILLE   CLEAR    100  50  18 SE18G24   29.98F
MCALLEN        MOSUNNY   99  63  30 SE20G28   29.97F
WESLACO        MOSUNNY   99  61  28 SE12G21   29.97F
FALFURRIAS     CLEAR    106  56  19 E9G21     29.96F
EDINBURG       CLEAR    102  53  19 S14G22    29.97F
$$


USA.gov is the U.S. government's official web portal to all federal, state and local government web resources and services.